Temperature
2 1 0 -0 -1 -1 -0 -0 -1 -1 -2 -2 -3 -3 -3 -3 -3 -4 -4 -4 -4 -4 -4 -3 -3 -2 -2 -1 -1 0 1 3 4 5 7 9 10 10 10 11 11 11 11
2 1 -0 -1 -2 -2 -3 -3 -3 -3 -4 -4 -5 -4 -4 -4 -4 -5 -5 -5 -5 -5 -5 -5 -4 -4 -4 -3 -2 -2 -1 0 2 3 5 8 11 11 11 11 11 11 11
1 0 -1 -2 -3 -4 -4 -4 -4 -5 -5 -6 -6 -6 -5 -5 -5 -6 -6 -6 -6 -6 -6 -5 -5 -5 -5 -5 -4 -4 -3 -2 -1 1 3 6 10 11 12 11 11 11 11
1 -0 -1 -3 -4 -5 -5 -5 -5 -6 -7 -7 -7 -7 -7 -7 -7 -7 -7 -7 -7 -6 -6 -6 -6 -6 -6 -5 -5 -4 -4 -3 -2 -1 1 3 5 6 9 11 10 10 11
1 -1 -2 -4 -5 -6 -6 -6 -6 -7 -7 -8 -8 -8 -8 -8 -7 -7 -8 -8 -7 -7 -6 -6 -6 -6 -6 -5 -5 -5 -4 -4 -3 -2 -1 1 3 5 6 8 10 10 10
0 -2 -3 -4 -5 -6 -7 -7 -8 -8 -8 -8 -9 -9 -9 -9 -8 -8 -8 -8 -8 -8 -7 -7 -7 -7 -6 -6 -6 -5 -5 -5 -4 -3 -2 -1 1 3 5 6 8 10 10
-1 -2 -4 -5 -6 -7 -8 -8 -9 -9 -9 -9 -10 -10 -10 -10 -10 -9 -9 -9 -9 -9 -8 -8 -8 -7 -7 -6 -6 -6 -6 -5 -5 -4 -3 -2 -0 1 3 5 6 7 9
-2 -3 -4 -6 -6 -8 -8 -9 -9 -10 -10 -10 -11 -11 -11 -11 -11 -11 -10 -10 -10 -10 -9 -9 -9 -8 -7 -7 -6 -6 -6 -6 -5 -4 -3 -3 -2 0 2 3 5 6 7
-3 -4 -5 -6 -7 -8 -9 -9 -10 -11 -11 -11 -12 -12 -12 -12 -12 -12 -11 -11 -11 -10 -10 -9 -9 -9 -8 -7 -7 -6 -6 -5 -5 -4 -3 -3 -2 -1 1 2 4 5 6
-3 -4 -5 -7 -8 -8 -9 -10 -10 -11 -12 -12 -12 -12 -12 -13 -13 -12 -12 -12 -12 -11 -11 -10 -10 -9 -8 -8 -7 -7 -6 -6 -5 -4 -3 -2 -1 0 1 2 3 4 4
-4 -5 -6 -7 -8 -9 -9 -10 -10 -11 -12 -12 -13 -13 -13 -13 -13 -13 -13 -13 -12 -12 -11 -11 -11 -10 -9 -8 -8 -7 -7 -6 -6 -5 -4 -2 -1 0 1 2 3 3 4
-4 -5 -7 -8 -9 -10 -10 -11 -11 -11 -12 -13 -13 -13 -13 -13 -13 -13 -13 -13 -13 -12 -12 -12 -11 -11 -10 -8 -8 -7 -7 -6 -6 -6 -4 -2 -1 -0 0 1 2 3 3
-5 -6 -7 -8 -9 -10 -11 -11 -12 -12 -12 -13 -13 -13 -13 -13 -14 -14 -14 -13 -13 -13 -12 -12 -12 -11 -10 -8 -8 -7 -7 -6 -6 -6 -5 -4 -2 -1 -1 0 1 2 3
-5 -6 -8 -9 -10 -10 -11 -11 -11 -12 -13 -13 -13 -13 -14 -14 -14 -14 -14 -14 -13 -13 -13 -12 -12 -11 -10 -9 -8 -7 -7 -7 -6 -6 -5 -4 -4 -2 -2 -1 0 1 2
-6 -7 -8 -9 -10 -11 -11 -11 -11 -11 -12 -13 -13 -13 -13 -14 -14 -14 -14 -14 -14 -14 -13 -13 -12 -11 -10 -9 -9 -8 -8 -7 -7 -7 -6 -5 -5 -4 -2 -1 -0 0 1
-7 -8 -9 -10 -10 -10 -10 -10 -11 -11 -12 -13 -13 -13 -13 -13 -13 -14 -14 -14 -14 -14 -13 -13 -13 -12 -11 -10 -9 -9 -9 -8 -8 -7 -7 -6 -5 -4 -3 -3 -2 -0 0
-8 -9 -9 -10 -10 -10 -10 -10 -11 -11 -12 -12 -13 -13 -13 -13 -14 -14 -15 -15 -15 -14 -14 -14 -13 -13 -12 -11 -10 -9 -9 -8 -8 -8 -8 -8 -7 -5 -4 -4 -3 -2 -1
-9 -9 -9 -9 -9 -9 -10 -10 -11 -12 -12 -12 -12 -13 -13 -14 -15 -15 -15 -15 -15 -15 -15 -14 -14 -13 -12 -11 -10 -9 -9 -9 -9 -8 -9 -8 -8 -7 -6 -5 -4 -4 -4
-8 -8 -8 -8 -9 -10 -10 -10 -11 -12 -12 -12 -13 -13 -14 -15 -15 -15 -15 -15 -15 -15 -15 -14 -14 -13 -12 -11 -10 -9 -9 -10 -10 -9 -9 -9 -9 -8 -7 -7 -6 -6 -6
-8 -7 -8 -8 -9 -10 -10 -11 -11 -12 -12 -12 -13 -13 -15 -15 -15 -15 -15 -15 -15 -15 -14 -14 -13 -13 -13 -12 -11 -10 -10 -10 -10 -10 -10 -10 -10 -9 -9 -8 -8 -7 -7
-7 -7 -8 -8 -9 -10 -10 -11 -11 -11 -12 -12 -12 -14 -14 -15 -15 -15 -15 -15 -15 -15 -14 -14 -13 -13 -13 -12 -11 -11 -11 -11 -11 -10 -11 -10 -10 -10 -10 -10 -10 -10 -9
-7 -7 -7 -8 -9 -10 -11 -10 -11 -11 -11 -11 -12 -14 -14 -15 -15 -15 -15 -15 -15 -15 -14 -14 -13 -13 -13 -13 -12 -12 -12 -11 -11 -11 -12 -12 -12 -11 -11 -10 -11 -10 -11
-7 -7 -8 -8 -9 -10 -11 -11 -11 -11 -11 -12 -13 -14 -14 -15 -14 -15 -15 -14 -14 -14 -14 -14 -14 -13 -13 -13 -13 -12 -12 -12 -12 -13 -13 -13 -12 -12 -11 -11 -11 -11 -11
-7 -7 -8 -8 -9 -10 -10 -11 -11 -11 -11 -12 -13 -14 -15 -14 -14 -14 -14 -14 -14 -14 -14 -14 -14 -14 -13 -13 -13 -13 -13 -14 -13 -13 -14 -13 -13 -13 -13 -12 -12 -12 -13
-7 -7 -8 -9 -9 -10 -10 -10 -11 -11 -12 -13 -13 -14 -14 -14 -14 -14 -14 -14 -14 -14 -15 -15 -15 -14 -14 -14 -14 -14 -14 -14 -14 -14 -14 -14 -14 -14 -14 -14 -13 -13 -13
-7 -7 -8 -8 -9 -9 -10 -10 -10 -11 -12 -13 -14 -14 -14 -14 -14 -14 -14 -14 -14 -15 -15 -15 -15 -15 -14 -14 -14 -14 -15 -15 -15 -15 -15 -15 -15 -15 -15 -15 -15 -15 -14
Wind_Speed
16 17 19 21 23 23 23 23 22 22 19 16 17 17 16 14 15 18 23 23 23 23 21 18 18 17 15 16 16 14 15 13 12 11 13 17 17 17 15 14 14 15 15
18 18 18 19 21 21 21 21 21 21 18 16 17 16 16 14 16 18 21 22 24 23 20 18 14 16 16 17 16 16 13 13 12 9 9 10 14 16 15 15 15 15 14
17 18 18 20 21 21 20 19 20 20 19 20 18 16 15 15 15 16 16 22 23 22 20 19 16 15 13 13 14 14 15 14 14 13 8 7 9 9 11 12 13 14 13
17 19 19 19 20 20 18 19 19 19 19 20 17 19 15 16 18 16 17 22 22 22 21 19 17 14 12 14 13 14 12 13 13 14 13 12 8 7 8 9 9 10 11
17 19 17 17 18 18 17 17 18 17 18 19 18 17 16 16 16 17 19 19 20 22 22 22 19 16 13 14 15 15 14 11 12 13 15 16 12 12 9 11 11 9 8
17 17 15 15 16 17 16 17 18 18 18 19 19 19 19 20 20 21 19 17 17 18 21 23 22 19 15 15 15 16 16 13 14 13 14 16 13 9 9 10 14 15 12
16 16 16 17 17 18 17 17 19 19 19 19 19 19 20 20 20 20 19 19 17 17 19 22 20 19 19 18 15 16 15 16 15 15 13 14 16 13 12 13 12 13 14
16 15 15 16 17 17 18 18 19 19 19 19 20 19 19 17 17 19 19 18 17 17 21 22 22 23 23 19 16 16 16 15 15 16 15 14 16 15 13 12 11 11 12
16 15 15 16 17 18 18 18 19 19 19 19 19 18 18 18 19 19 18 17 18 20 23 23 21 22 22 20 18 16 17 16 16 15 16 15 15 15 12 12 10 9 9
15 15 16 16 17 17 18 18 19 18 18 18 17 16 17 18 18 18 19 20 20 23 23 21 21 20 19 19 19 17 16 16 16 14 15 17 16 13 9 11 12 12 13
15 16 15 15 16 17 17 18 19 19 18 18 17 17 17 17 18 17 19 20 21 22 21 22 22 22 21 20 19 20 17 17 16 15 16 18 16 9 6 8 11 12 12
15 16 15 16 16 17 17 18 18 18 18 17 17 16 16 17 18 19 20 21 21 22 22 22 22 22 22 21 21 21 18 16 17 16 15 15 11 11 7 6 10 12 12
16 16 15 16 17 17 17 17 17 17 17 17 16 16 17 18 19 19 20 21 21 21 22 20 21 22 21 21 22 19 16 14 15 15 14 13 15 13 10 6 8 9 8
16 16 15 16 16 17 17 17 17 16 16 16 16 16 17 18 19 19 19 20 21 20 21 20 20 21 20 20 21 14 12 13 14 15 15 14 15 15 12 7 9 11 9
16 15 16 16 17 17 17 17 17 16 16 16 16 16 17 18 19 19 20 20 20 20 20 20 20 21 19 19 23 11 10 12 13 14 14 14 17 21 15 4 6 8 7
16 16 16 17 18 18 17 17 17 17 17 16 16 16 17 18 18 19 19 20 20 20 19 19 20 20 17 27 32 17 10 11 11 12 13 14 16 19 24 26 22 15 4
15 16 16 16 17 17 17 17 17 17 17 16 16 17 17 18 19 19 19 19 19 19 19 19 19 19 21 30 31 19 12 11 12 12 12 12 14 16 14 20 25 26 28
14 14 14 15 16 16 16 16 16 16 17 17 17 18 18 18 19 19 18 18 17 17 17 18 19 19 21 30 29 18 9 11 13 13 14 15 15 17 16 15 17 18 19
12 13 13 14 15 15 16 17 17 17 17 17 18 18 18 18 19 18 18 17 17 16 16 17 18 18 20 29 28 12 11 12 14 15 16 18 18 24 24 18 17 18 17
11 12 13 14 14 15 16 17 17 17 18 19 19 20 19 19 19 18 18 17 16 15 16 16 16 16 17 25 26 21 13 12 12 12 16 22 23 26 26 19 17 16 15
11 12 13 13 14 15 16 17 18 18 18 19 20 20 20 18 17 17 16 16 15 14 14 15 14 14 17 21 25 26 17 12 11 10 12 15 24 26 27 23 18 16 14
12 13 13 14 14 14 15 17 17 18 19 19 20 20 19 17 15 16 15 14 13 12 13 13 13 12 14 18 20 25 25 20 11 9 11 14 22 24 26 21 22 22 17
11 12 13 15 15 15 15 16 17 18 19 20 19 18 18 17 16 15 15 13 13 11 11 10 10 10 11 14 17 19 20 20 15 12 16 19 21 20 19 23 23 19 13
10 12 13 15 15 16 15 15 16 17 18 19 18 17 17 17 16 13 12 12 12 12 11 9 9 9 9 11 10 12 13 13 11 10 13 16 16 16 17 17 15 13 13
10 11 12 14 15 16 16 16 16 17 18 18 18 17 16 16 16 15 13 12 11 11 11 10 7 7 8 12 13 12 10 9 9 8 9 10 10 11 11 11 12 12 12
10 12 13 14 15 15 16 17 17 17 18 17 17 15 15 15 14 13 13 15 14 14 13 12 9 7 11 14 12 11 12 11 10 8 9 9 10 10 10 10 10 10 10
Wind_Direction
8 9 5 2 358 357 356 353 351 349 349 352 347 345 342 343 343 341 339 339 338 337 336 335 333 333 329 325 321 318 309 300 294 292 278 264 255 250 250 249 247 242 235
3 1 356 358 358 355 353 351 351 348 348 353 347 341 337 339 339 338 334 334 333 334 336 333 331 332 328 323 322 323 317 306 302 306 301 271 260 245 243 245 241 238 235
357 353 354 357 357 354 350 349 351 347 349 351 348 344 342 340 341 340 334 332 330 327 329 329 327 327 319 313 317 316 313 313 305 290 285 278 260 272 247 238 240 236 233
353 352 353 355 354 350 347 347 348 346 348 349 350 347 344 340 337 335 331 329 327 325 327 325 327 324 317 316 313 310 305 299 299 297 285 275 289 291 276 238 227 236 240
350 350 351 350 347 348 346 345 345 346 349 349 350 345 341 339 335 334 332 332 329 326 328 323 329 323 318 313 311 306 301 295 288 288 289 285 283 278 268 263 258 249 244
346 346 345 344 346 348 345 346 346 348 349 349 349 345 341 339 337 336 335 334 329 329 326 328 328 323 319 318 312 307 303 296 286 279 279 280 277 278 278 267 262 264 259
344 345 345 347 348 347 345 347 347 346 347 347 346 344 341 338 336 335 333 331 330 327 324 326 325 320 319 316 310 302 297 296 290 281 278 277 274 273 275 276 271 271 268
347 347 347 346 346 346 347 347 346 344 344 345 343 341 340 337 334 332 329 326 326 323 323 322 321 318 319 316 311 303 298 299 296 283 271 273 275 275 270 272 269 260 260
348 349 346 346 348 349 348 347 345 342 341 341 340 339 340 338 334 330 328 326 325 324 323 323 321 318 318 319 318 308 305 305 300 291 275 266 266 267 265 262 262 263 250
353 350 350 349 349 349 347 346 345 341 340 339 338 337 338 337 334 331 330 328 326 324 324 325 323 318 319 323 320 308 306 310 306 297 291 279 267 262 257 251 246 242 248
353 350 350 349 348 348 347 347 345 342 341 340 338 338 338 337 336 335 332 329 327 326 325 326 324 323 324 327 323 310 316 316 314 314 307 296 271 274 271 263 251 239 238
348 349 349 349 348 348 348 346 343 341 340 340 339 338 338 339 339 338 336 333 330 328 327 327 324 324 327 327 323 313 320 323 323 325 324 325 306 259 255 286 277 247 230
347 348 349 349 347 346 344 343 341 340 338 338 338 338 339 340 340 339 338 336 333 330 330 331 326 326 328 323 320 314 324 328 328 329 330 332 342 317 285 291 287 257 239
347 347 347 346 345 343 341 340 339 339 337 336 337 337 338 337 336 336 337 336 335 333 331 332 331 329 328 325 318 323 343 340 336 333 333 335 347 332 293 285 292 267 233
346 346 345 343 342 340 339 338 336 336 335 333 334 335 335 333 333 334 336 335 334 334 331 332 332 331 332 328 328 346 344 340 339 338 340 340 354 1 357 337 301 284 254
342 344 343 340 339 337 336 334 332 332 331 331 330 331 332 332 331 331 334 334 333 333 333 331 332 332 332 331 337 352 348 345 345 344 351 353 359 7 19 32 36 31 357
338 340 339 337 333 332 330 328 329 327 327 328 326 326 328 329 329 329 331 333 332 332 330 331 333 333 333 334 338 349 353 356 4 358 10 12 9 16 12 26 34 36 42
334 334 335 331 327 327 326 324 326 324 325 323 323 324 325 325 325 326 327 329 331 331 329 332 335 335 337 337 339 342 4 6 15 15 30 29 23 27 27 26 31 29 32
330 332 332 328 325 326 327 326 326 328 326 323 323 323 321 320 321 321 320 327 329 327 329 334 336 339 341 343 353 33 29 16 18 22 31 35 31 33 33 31 32 32 22
333 332 330 330 329 329 328 325 327 329 329 327 323 321 322 324 324 322 322 323 325 324 328 332 338 344 348 351 7 28 15 15 10 22 37 39 38 34 36 36 36 34 24
333 333 333 332 333 332 329 327 329 331 330 325 322 323 327 329 326 323 321 323 323 324 328 331 337 349 353 356 6 18 14 9 11 24 38 34 40 41 39 38 35 35 31
337 338 334 331 333 335 331 327 329 330 327 325 326 329 330 329 325 326 326 323 322 326 327 331 338 349 352 357 6 15 17 21 22 40 43 37 37 40 42 39 35 33 34
336 337 333 329 333 339 335 327 328 329 327 328 331 333 331 329 331 333 329 328 326 324 320 324 331 344 348 358 8 15 20 24 32 45 43 40 40 38 40 40 37 35 34
337 336 334 333 335 338 335 332 331 331 330 333 333 334 333 330 331 333 332 329 326 326 330 337 334 337 345 356 11 20 25 26 35 32 36 37 37 39 37 37 37 36 36
337 337 336 332 334 336 335 337 338 336 335 336 336 338 334 333 337 339 339 336 337 346 349 341 335 335 341 351 19 22 27 26 37 38 38 36 34 32 33 35 36 35 34
336 336 337 335 334 334 336 340 342 341 341 342 343 340 339 341 341 339 341 347 352 355 4 350 346 333 333 343 24 29 38 33 38 44 42 37 34 31 28 28 30 32 33
Height
1619 1615 1609 1603 1597 1589 1582 1577 1570 1565 1559 1551 1545 1539 1533 1530 1527 1523 1519 1515 1510 1506 1501 1498 1493 1488 1483 1478 1474 1469 1466 1465 1465 1463 1459 1459 1458 1458 1458 1458 1460 1462 1463
1618 1614 1609 1603 1596 1590 1584 1577 1570 1565 1560 1552 1545 1540 1533 1528 1524 1520 1516 1512 1508 1504 1499 1493 1488 1483 1478 1474 1471 1468 1463 1461 1461 1460 1455 1452 1451 1450 1450 1451 1452 1453 1456
1617 1613 1608 1602 1596 1589 1584 1576 1568 1563 1558 1550 1543 1537 1532 1526 1521 1517 1513 1508 1504 1501 1497 1491 1486 1481 1476 1472 1468 1465 1461 1457 1455 1456 1455 1449 1444 1444 1444 1444 1445 1446 1448
1617 1612 1606 1599 1593 1587 1581 1574 1567 1561 1555 1548 1541 1535 1531 1525 1520 1516 1512 1507 1502 1497 1493 1490 1484 1478 1474 1470 1465 1460 1457 1454 1451 1450 1449 1448 1444 1443 1439 1438 1439 1440 1440
1614 1608 1603 1598 1592 1586 1580 1573 1566 1560 1553 1547 1540 1535 1530 1525 1519 1514 1509 1504 1499 1494 1489 1485 1481 1475 1470 1466 1462 1456 1453 1450 1447 1444 1443 1440 1438 1435 1436 1434 1435 1435 1436
1612 1607 1601 1596 1591 1585 1578 1571 1564 1557 1551 1545 1539 1533 1528 1523 1517 1511 1505 1500 1496 1491 1485 1481 1476 1470 1465 1461 1457 1452 1447 1444 1441 1438 1436 1435 1433 1430 1429 1428 1429 1431 1432
1610 1605 1600 1595 1590 1584 1576 1569 1562 1555 1549 1543 1537 1531 1526 1521 1515 1509 1503 1497 1492 1487 1482 1477 1471 1466 1461 1456 1451 1446 1441 1436 1432 1430 1427 1426 1426 1425 1424 1423 1423 1424 1426
1608 1603 1600 1594 1588 1581 1574 1567 1560 1553 1547 1540 1534 1529 1524 1519 1513 1508 1502 1496 1491 1485 1480 1474 1468 1463 1458 1452 1447 1441 1436 1430 1425 1422 1419 1416 1417 1419 1417 1416 1418 1418 1419
1607 1603 1598 1593 1587 1579 1572 1565 1558 1551 1544 1538 1532 1526 1521 1516 1510 1504 1499 1493 1488 1482 1476 1471 1465 1460 1455 1449 1443 1436 1430 1424 1419 1416 1413 1410 1409 1410 1410 1411 1412 1413 1412
1606 1601 1596 1591 1584 1576 1570 1563 1556 1549 1542 1535 1529 1523 1518 1512 1507 1502 1496 1490 1484 1478 1472 1467 1461 1456 1451 1445 1439 1432 1427 1421 1415 1410 1407 1404 1403 1403 1403 1403 1405 1406 1405
1603 1598 1592 1587 1581 1573 1566 1560 1552 1546 1540 1533 1527 1521 1516 1511 1505 1500 1494 1488 1481 1475 1469 1462 1456 1451 1446 1441 1435 1429 1425 1417 1411 1405 1400 1397 1397 1396 1396 1396 1397 1399 1399
1601 1595 1590 1584 1577 1570 1563 1556 1550 1543 1537 1531 1525 1520 1515 1509 1503 1497 1491 1485 1478 1472 1466 1460 1452 1446 1441 1436 1431 1424 1421 1413 1407 1400 1394 1391 1390 1391 1390 1390 1390 1390 1391
1599 1594 1587 1581 1575 1567 1560 1553 1547 1541 1535 1529 1524 1519 1513 1507 1501 1495 1489 1482 1476 1469 1463 1457 1450 1444 1438 1432 1426 1420 1417 1410 1404 1399 1393 1388 1385 1384 1384 1383 1383 1384 1384
1597 1591 1585 1578 1572 1565 1558 1551 1545 1539 1533 1528 1523 1517 1511 1505 1499 1493 1486 1480 1474 1467 1460 1454 1448 1442 1436 1430 1422 1418 1412 1407 1401 1396 1390 1384 1378 1376 1377 1377 1378 1378 1379
1594 1588 1582 1576 1570 1563 1556 1549 1543 1537 1532 1526 1521 1515 1509 1503 1497 1491 1485 1478 1472 1465 1458 1452 1447 1441 1435 1428 1422 1417 1411 1406 1400 1395 1390 1384 1379 1374 1372 1372 1371 1371 1373
1593 1587 1582 1575 1568 1561 1554 1548 1542 1536 1530 1525 1519 1513 1507 1501 1494 1489 1483 1476 1470 1463 1456 1450 1445 1440 1434 1428 1422 1417 1411 1405 1400 1395 1390 1384 1380 1375 1369 1366 1364 1365 1366
1592 1586 1580 1574 1567 1560 1553 1546 1540 1534 1529 1523 1517 1511 1504 1498 1492 1487 1481 1475 1468 1461 1455 1449 1444 1438 1433 1427 1421 1416 1412 1407 1402 1397 1392 1387 1382 1378 1373 1368 1365 1363 1362
1589 1582 1576 1571 1566 1559 1552 1545 1538 1532 1527 1520 1514 1509 1502 1496 1490 1485 1479 1473 1467 1460 1454 1449 1443 1438 1432 1426 1420 1415 1412 1408 1403 1399 1396 1390 1386 1382 1377 1373 1369 1365 1364
1588 1583 1576 1569 1564 1558 1551 1544 1537 1531 1525 1519 1512 1506 1499 1493 1487 1482 1477 1472 1466 1460 1455 1450 1444 1438 1433 1426 1420 1417 1414 1410 1406 1403 1400 1395 1391 1386 1381 1377 1373 1369 1369
1588 1582 1575 1568 1563 1557 1550 1543 1536 1529 1523 1517 1511 1504 1497 1491 1485 1479 1474 1469 1465 1460 1455 1450 1445 1440 1435 1429 1425 1420 1416 1413 1409 1407 1405 1401 1396 1392 1386 1383 1381 1378 1377
1584 1579 1574 1568 1561 1555 1548 1542 1536 1529 1523 1516 1508 1501 1495 1489 1483 1477 1472 1468 1463 1459 1454 1450 1445 1441 1436 1431 1427 1423 1418 1416 1413 1410 1408 1406 1401 1396 1392 1388 1387 1386 1384
1583 1578 1572 1567 1560 1554 1547 1541 1535 1529 1521 1514 1507 1500 1492 1487 1482 1476 1471 1467 1462 1458 1454 1450 1446 1442 1438 1434 1430 1427 1423 1418 1415 1413 1411 1409 1405 1402 1398 1395 1393 1390 1389
1582 1577 1571 1565 1560 1553 1546 1540 1534 1526 1519 1512 1505 1498 1491 1486 1481 1476 1471 1466 1461 1457 1453 1449 1446 1443 1440 1437 1433 1430 1427 1422 1418 1416 1414 1411 1408 1406 1404 1402 1400 1398 1397
1579 1574 1569 1563 1558 1552 1546 1540 1533 1525 1518 1510 1503 1497 1491 1485 1480 1475 1470 1465 1460 1455 1451 1448 1446 1444 1442 1439 1435 1432 1429 1426 1422 1419 1417 1415 1413 1411 1409 1407 1406 1404 1403
1579 1573 1568 1563 1557 1551 1546 1539 1532 1524 1516 1508 1502 1496 1491 1486 1480 1474 1469 1464 1459 1455 1451 1447 1445 1444 1443 1440 1437 1434 1431 1428 1425 1423 1421 1419 1417 1415 1414 1412 1411 1410 1409
1578 1574 1569 1563 1557 1551 1545 1539 1532 1525 1516 1508 1502 1496 1491 1485 1479 1473 1468 1464 1460 1455 1450 1446 1445 1444 1444 1441 1438 1435 1432 1430 1428 1426 1425 1423 1421 1420 1418 1416 1415 1413 1412